Regional Weather Roundup
Issued by NWS

Home | Current Version | Previous Version | Text Only | Print | Product List | Glossary On
Versions: 1 2 3 4 5 6 7 8 9 10 11 12 13 14 15 16 17 18 19 20 21 22 23 24 25 26 27 28 29 30 31 32 33 34 35 36 37 38 39 40 41 42 43 44 45 46 47 48 49 50
000
ASUS43 KBIS 310520
RWRND

NORTH DAKOTA REGIONAL WEATHER ROUNDUP
NATIONAL WEATHER SERVICE BISMARCK ND
1200 AM CDT THU JUL 31 2014

NOTE: "FAIR" INDICATES FEW OR NO CLOUDS BELOW 12,000 FEET WITH NO
SIGNIFICANT WEATHER AND/OR OBSTRUCTIONS TO VISIBILITY.


NDZ001>003-009>011-017-310600-
NORTHWEST NORTH DAKOTA

CITY           SKY/WX    TMP DP  RH WIND       PRES   REMARKS
WILLISTON      CLEAR     68  53  58 CALM      30.11F
MINOT          CLEAR     65  55  70 SW3       30.09F
MINOT AFB      CLEAR     59  58  94 W3        30.09F
$$

NDZ018>021-031>035-040>046-310600-
SOUTHWEST NORTH DAKOTA

CITY           SKY/WX    TMP DP  RH WIND       PRES   REMARKS
BISMARCK       MOCLDY    64  58  80 CALM      30.11S
DICKINSON      CLEAR     63  52  67 E5        30.14S
GARRISON         N/A     62  59  90 N5        30.11F
HETTINGER ARPT CLEAR     57  53  86 W3        30.16S
$$

NDZ004>008-012>016-024-026-027-054-310600-
NORTHEAST NORTH DAKOTA

CITY           SKY/WX    TMP DP  RH WIND       PRES   REMARKS
GRAND FORKS    CLEAR     61  57  87 W6        30.04S
GRND FRKS AFB  CLEAR     60  59  99 W2        30.05S
DEVILS LAKE    CLEAR     64  55  72 CALM      30.07S
$$

NDZ022-023-025-028>030-036>039-047>053-310600-
SOUTHEAST NORTH DAKOTA

CITY           SKY/WX    TMP DP  RH WIND       PRES   REMARKS
FARGO          CLEAR     64  56  75 CALM      30.04F
JAMESTOWN      CLEAR     63  55  75 W3        30.09S
$$



USA.gov is the U.S. government's official web portal to all federal, state and local government web resources and services.